August, Belize

12:29 AM CST on September 26, 2017 (GMT -0600)
August

Weather History for 78583 - April, 2014

Change the Weather History Date:

Saturday, April 5, 2014

  Actual Average Record
Temperature  
Mean Temperature 83 °F -  
Max Temperature 88 °F 88 °F - ()
Min Temperature 78 °F 74 °F - ()
Cooling Degree Days 18    
Growing Degree Days 33 (Base 50)    
Moisture  
Dew Point 74 °F    
Average Humidity 69    
Maximum Humidity 84    
Minimum Humidity 55    
Precipitation  
Precipitation 0.00 in 0.08 in - ()
Sea Level Pressure  
Sea Level Pressure 29.88 in    
Wind  
Wind Speed 8 mph ()    
Max Wind Speed 13 mph    
Max Gust Speed -    
Visibility 8.6 miles    
Events      
T = Trace of Precipitation, MM = Missing Value Source: Averaged Metar Reports

Daily Weather History Graph

Daily Weather History Graph

Search for Another Location

Airport or City:

Trip Planner

Search our weather history database for the weather conditions in past years. The results will help you decide how hot, cold, wet, or windy it might be!

Date:

Astronomy

Apr. 05, 2014 Rise Set
Actual Time 5:44 AM CST 6:07 PM CST
Civil Twilight 5:22 AM CST 6:29 PM CST
Nautical Twilight 4:57 AM CST 6:54 PM CST
Astronomical Twilight 4:31 AM CST 7:20 PM CST
Moon 10:21 AM CST (4/5) 11:36 PM CST (4/5)
Length of Visible Light 13h 06m
Length of Day
12h 22m
Waxing Crescent, 35% of the Moon is Illuminated
Apr 5
Waxing Crescent
Apr 7
First Quarter
Apr 15
Full
Apr 22
Last Quarter
Apr 29
New

Hourly Weather History & Observations

Time (CST) Temp. Heat Index Dew Point Humidity Pressure Visibility Wind Dir Wind Speed Gust Speed Precip Events Conditions
12:00 AM 81 °F - 75 °F 78% 29.90 in 12 mi East 8.1 mph - -   Partly Cloudy
3:00 AM 80 °F - 74 °F 78% 29.85 in 12 mi East 6.9 mph - -   Scattered Clouds
5:00 AM 80.6 °F 86.2 °F 75.2 °F 84% 29.87 in 6.2 mi East 6.9 mph - N/A   Partly Cloudy
6:00 AM 79 °F - 74 °F 79% 29.88 in 12 mi ESE 5.8 mph - -   Scattered Clouds
6:00 AM 78.8 °F - 73.4 °F 83% 29.87 in 6.2 mi ESE 5.8 mph - N/A   Partly Cloudy
9:00 AM 85 °F - 72 °F 58% 29.93 in 12 mi ESE 8.1 mph - -   Partly Cloudy
9:00 AM 86.0 °F 93.4 °F 73.4 °F 66% 29.93 in 6.2 mi ESE 8.1 mph - N/A   Scattered Clouds
10:00 AM 87.8 °F 97.6 °F 75.2 °F 66% 29.93 in 6.2 mi East 9.2 mph - N/A   Scattered Clouds
11:00 AM 87.8 °F 97.6 °F 75.2 °F 66% 29.92 in 6.2 mi East 10.4 mph - N/A   Scattered Clouds
12:00 PM 88 °F - 74 °F 56% 29.91 in 14 mi ENE 11.5 mph - -   Partly Cloudy
12:00 PM 87.8 °F 97.6 °F 75.2 °F 66% 29.90 in 6.2 mi ENE 11.5 mph - N/A   Scattered Clouds
1:00 PM 87.8 °F 95.6 °F 73.4 °F 62% 29.87 in 6.2 mi East 12.7 mph - N/A   Scattered Clouds
2:00 PM 87.8 °F 95.6 °F 73.4 °F 62% 29.85 in 6.2 mi East 11.5 mph - N/A   Partly Cloudy
3:00 PM 87 °F - 73 °F 55% 29.84 in 12 mi East 11.5 mph - -   Scattered Clouds
3:00 PM 86.0 °F 93.4 °F 73.4 °F 66% 29.84 in 6.2 mi East 11.5 mph - N/A   Partly Cloudy
4:00 PM 86.0 °F 93.4 °F 73.4 °F 66% 29.83 in 6.2 mi East 12.7 mph - N/A   Partly Cloudy
5:00 PM 84.2 °F 90.9 °F 73.4 °F 70% 29.84 in 6.2 mi East 10.4 mph - N/A   Partly Cloudy
6:00 PM 83 °F - 73 °F 65% 29.85 in 12 mi East 9.2 mph - -   Scattered Clouds
6:00 PM 82.4 °F 88.2 °F 73.4 °F 74% 29.85 in 6.2 mi East 9.2 mph - N/A   Partly Cloudy
9:00 PM 81 °F - 74 °F 74% 29.90 in 12 mi East 6.9 mph - -   Scattered Clouds